< < Back
Terminal Aerodrome Forecast


Current Version              Previous Versions:   1  2  3  4  5  6  7  8  9  

Terminal Aerodrome Forecast

474
FTUS44 KMOB 290531
TAFMOB
TAF
KMOB 290531Z 2906/3006 00000KT P6SM SCT250
     FM291500 36003KT P6SM SCT250
     FM292000 18008KT P6SM VCTS SCT040CB BKN250
     FM300100 24003KT P6SM BKN250=



Latest METAR

373
SAUS80 KWBC 290700 CCA
MTRMOB
METAR KMOB 290656Z AUTO 00000KT 10SM CLR 19/19 A3007 RMK AO2 SLP180
T01890189


USA.gov is the U.S. government's official web portal to all federal, state and local government web resources and services.